Location: Unspecified
(51.5147°N, 7.4673°E)
Time: 05:42:28
(UTC+01:00)

Transit 4A - Pass Details

Date: 18 February 2026
Orbit: 863 x 978 km, 66.8° (Epoch: 14 March)

Event Time Altitude Azimuth Distance (km) Brightness Sun altitude
Exits shadow 06:46:39 11° 275° (W) 2,531 9.5 -8.7°
Maximum altitude 06:51:37 28° 333° (NNW) 1,637 8.9 -7.9°
Drops below altitude 10° 06:56:51 10° 32° (NNE) 2,644 10.6 -7.1°
Sets 06:59:49 0° 44° (NE) 3,609 11.5 -6.6°
